Retour au catalogue

ARIANE 3 DEB

ActifGTO
NORAD 27026·DEBRIS·🇫🇷 France

Lancé Sep 8, 1988 depuis Guiana Space Centre

Loading…

TLE

VieillissantSource: Space-Track

Époque: Sep 14, 2026, 11:37 UTC

1 27026U 88081J   26257.48439378  .00000253  00000-0  23964-2 0  9996
2 27026   7.4286 142.6463 7107499 351.9491 213.9973  2.36527955268511

Suivez ARIANE 3 DEB en temps réel avec AllMySat

Download on the App Store